sat.trackr.live / text

‹ back to catalog

SNIPE 2

NORAD 56745 · 2023-072C

PAYLOAD ACTIVE UNKNOWN

§ Identity

Operator
Country
SKOR
Launch date
2023-05-25
Launch site
NSC
Launch vehicle
Mass (kg)
RCS (m²)

External: N2YO · Heavens-Above · Gunter

§ Orbital elements

Epoch: 2026-09-21T22:45:39.283776Z

Period
92.81 min
Inclination
97.5113°
Eccentricity
0.0004739
Mean motion
15.51639682 rev/d
Perigee alt
408.7 km
Apogee alt
415.2 km
Semi-major
6,790.1 km
B*
3.9521e-4
RAAN
118.0335°
Arg perigee
31.1438°
Mean anomaly
329.0094°
Rev number
18,522

§ Raw data

SNIPE 21 56745U 23072C   26264.94837134  .00023417  00000+0  39521-3 0  99992 56745  97.5113 118.0335 0004739  31.1438 329.0094 15.51639682185220

JSON: /api/v1/satellites/56745 · /tle

For live sub-satellite position, see the globe view (requires WebGL).

§ Visibility from observer

Set your observer location to see the next 7 days of passes ≥ 10°. The values pass through the URL so the page stays shareable.

No JS? Fill the form by hand. The geolocation button needs JavaScript.

§ Radio — SatNOGS DB

ModeDescriptionDownlinkUplink
MSK AX.100 Mode 5 Mode U - MSK4k8 436.000 MHz

1 transmitter · refreshed weekly from db.satnogs.org